Flag for Tunisia Weather past 2 weeks in Sfax, Tunisia

Now
64 °F

Passing clouds.


Feels Like: 64 °F
Forecast: 50 / 69 °F
Wind: 12 mph from North

Location: Sfax El-Maou


UV Index: 7 (High)

Visibility: N/A


Pressure: 30.07 "Hg

Humidity: 37%

Dew point: 37 °F

Location of SfaxLocation

Historic Weather in Sfax

°F

Sfax temperature yesterday

Maximum temperature yesterday: 73 °F (at 1:00 PM)
Minimum temperature yesterday: 57 °F (at 4:00 AM)
Average temperature yesterday: 64 °F

Past Weeks' High & Low Weather Summary

 TemperatureHumidityPressure
High81 °F (Apr 9, 2:00 PM)94% (Apr 8, 7:00 AM)30.24 "Hg (Apr 8, 7:00 AM)
Low50 °F (Apr 17, 5:00 AM)22% (Apr 5, 2:00 PM)29.53 "Hg (Apr 3, 4:00 PM)
Average65 °F63%29.99 "Hg
* Reported Apr 2 10:00 AM — Apr 17 10:00 AM, Sfax, Weather by CustomWeather, © 2014

Note: Actual official high and low records may vary slightly from our data, if they occured in-between our weather recording intervals... More about our weather records

Advertising

Historic Weather Conditions — Data for Previous 24 hours

 ConditionsComfort  
Time TempWeatherWind HumidityBarometerVisibility
10:00 AM
Apr 17
64 °FPassing clouds.12 mph37%30.07 "HgN/A
9:00 AM61 °FPassing clouds.14 mph48%30.07 "HgN/A
8:00 AM59 °FPassing clouds.10 mph55%30.07 "HgN/A
7:00 AM55 °FPassing clouds.8 mph63%30.04 "HgN/A
5:00 AM50 °FPassing clouds.5 mph76%30.04 "HgN/A
4:00 AM52 °FPassing clouds.5 mph72%30.04 "HgN/A
3:00 AM54 °FPassing clouds.5 mph67%30.07 "HgN/A
1:00 AM55 °FPassing clouds.3 mph67%30.07 "HgN/A
12:00 AM57 °FPassing clouds.No wind63%30.09 "HgN/A
10:00 PM
Apr 16
61 °FPassing clouds.10 mph48%30.07 "HgN/A
9:00 PM61 °FPassing clouds.8 mph48%30.07 "HgN/A
8:00 PM61 °FPassing clouds.8 mph52%30.04 "HgN/A
7:00 PM63 °FPassing clouds.13 mph49%30.01 "HgN/A
6:00 PM64 °FScattered clouds.15 mph49%30.01 "HgN/A
5:00 PM66 °FScattered clouds.17 mph49%29.98 "HgN/A
4:00 PM66 °FScattered clouds.18 mph56%29.98 "HgN/A
3:00 PM68 °FPartly sunny.18 mph53%29.95 "HgN/A
2:00 PM72 °FScattered clouds.14 mph50%29.98 "HgN/A
1:00 PM73 °FPassing clouds.12 mph33%29.98 "HgN/A
Weather by CustomWeather, © 2014

See weather overview